CW2157 Weather Reports


time (UTC)temp
F
wind
direction
speed
knots
gust
knots
rain 1hr
in
rain 24hr
in
rain mn
in
humidity
%
barometer
mb
20260508102704 52 1 0.0 2.6 0.00 0.01 0.00 62 1012.8
20260508102204 52 348 1.7 4.3 0.00 0.01 0.00 62 1012.8
20260508101704 52 350 0.9 5.2 0.00 0.01 0.00 62 1012.7
20260508101204 52 358 0.9 2.6 0.00 0.01 0.00 62 1012.6
20260508100704 52 347 0.9 2.6 0.00 0.01 0.00 62 1012.6
20260508100204 52 344 0.0 2.6 0.00 0.01 0.00 63 1012.7
20260508095205 53 351 0.9 4.3 0.00 0.01 0.00 62 1012.6
20260508094706 53 339 1.7 4.3 0.00 0.01 0.00 61 1012.5
20260508094205 53 4 0.9 4.3 0.00 0.01 0.00 61 1012.6
20260508093706 53 356 1.7 4.3 0.00 0.01 0.00 61 1012.6
20260508093205 53 344 0.9 5.2 0.00 0.01 0.00 62 1012.5
20260508092705 53 1 0.9 2.6 0.00 0.01 0.00 62 1012.5
20260508092205 52 353 3.5 7.8 0.00 0.01 0.00 64 1012.5
20260508091706 53 355 2.6 7.8 0.00 0.01 0.00 66 1012.4
20260508091205 53 0 2.6 6.1 0.00 0.01 0.00 67 1012.3
20260508085706 53 345 2.6 5.2 0.00 0.01 0.00 67 1012.0
20260508085205 53 337 1.7 4.3 0.00 0.01 0.00 68 1012.1
20260508084705 53 351 2.6 7.8 0.00 0.01 0.00 67 1011.9
20260508084205 53 334 4.3 10.4 0.00 0.01 0.00 68 1011.8
20260508083706 53 354 1.7 6.1 0.00 0.01 0.00 69 1011.8
20260508083205 53 339 1.7 7.8 0.00 0.01 0.00 70 1011.7
20260508082706 53 359 2.6 7.0 0.00 0.01 0.00 70 1011.6
20260508082206 53 343 0.9 7.0 0.00 0.01 0.00 71 1011.6
20260508081705 53 331 1.7 6.1 0.00 0.01 0.00 71 1011.6
20260508081205 52 351 2.6 6.1 0.00 0.01 0.00 74 1011.6
20260508080206 52 331 1.7 5.2 0.00 0.01 0.00 75 1011.4
20260508075705 52 324 2.6 7.0 0.00 0.01 0.00 77 1011.3
20260508075205 52 319 2.6 7.8 0.00 0.01 0.00 78 1011.2
20260508074706 52 347 1.7 7.8 0.00 0.01 0.00 80 1011.2
20260508073705 52 334 2.6 10.4 0.00 0.01 0.00 82 1010.9
20260508073206 52 340 2.6 7.8 0.00 0.01 0.00 84 1010.8
20260508072705 52 343 0.0 2.6 0.00 0.01 0.00 85 1010.8
20260508072206 52 198 0.0 2.6 0.00 0.01 0.00 85 1010.7
20260508071705 52 259 0.9 5.2 0.00 0.01 0.00 85 1010.6
20260508071205 52 237 1.7 5.2 0.00 0.01 0.00 85 1010.6
20260508070205 52 322 1.7 2.6 0.00 0.01 0.00 85 1010.3
20260508065705 52 298 0.9 5.2 0.00 0.01 0.00 86 1010.3
20260508064705 52 5 0.9 2.6 0.00 0.01 0.00 85 1010.1
20260508064206 52 280 1.7 4.3 0.00 0.01 0.00 85 1010.0
20260508063707 52 332 0.0 4.3 0.00 0.01 0.00 85 1010.0
20260508063205 52 226 0.9 4.3 0.00 0.01 0.00 85 1010.0
20260508062705 53 281 0.9 2.6 0.00 0.01 0.00 85 1010.0
20260508061706 53 289 0.0 6.1 0.00 0.01 0.00 85 1010.0
20260508061206 53 267 1.7 6.1 0.00 0.02 0.00 84 1010.1
20260508060705 53 271 0.9 2.6 0.00 0.02 0.00 84 1010.1
20260508060206 53 270 3.5 6.1 0.00 0.02 0.00 85 1010.1
20260508055706 53 271 1.7 5.2 0.00 0.02 0.00 84 1010.1
20260508055205 53 245 0.9 5.2 0.00 0.03 0.00 84 1010.1
20260508054706 53 247 0.9 4.3 0.00 0.05 0.00 83 1010.1
20260508053706 53 254 1.7 7.8 0.00 0.08 0.00 82 1010.1
20260508053205 53 238 1.7 7.8 0.00 0.12 0.00 82 1010.0
20260508052705 53 232 4.3 8.7 0.00 0.13 0.00 82 1010.1
20260508052205 53 262 1.7 7.0 0.00 0.14 0.00 82 1010.2
20260508051706 54 231 1.7 7.8 0.00 0.16 0.00 82 1010.2
20260508051205 54 237 1.7 7.8 0.00 0.16 0.00 82 1010.2
20260508050206 54 238 1.7 5.2 0.00 0.16 0.00 82 1010.1
20260508045205 54 260 1.7 6.1 0.00 0.16 0.00 82 1010.1
20260508044205 54 289 1.7 7.8 0.00 0.16 0.00 82 1010.1
20260508043705 54 242 1.7 8.7 0.00 0.16 0.00 82 1009.9
20260508043205 54 263 3.5 8.7 0.00 0.16 0.00 82 1009.9
20260508042706 54 243 1.7 10.4 0.00 0.16 0.00 83 1009.9
20260508042206 54 258 2.6 8.7 0.00 0.16 0.00 83 1009.9
20260508041705 53 245 2.6 7.8 0.00 0.16 0.00 83 1009.8
20260508040705 53 255 2.6 7.0 0.00 0.16 0.00 84 1009.7
20260508040205 53 239 2.6 7.0 0.00 0.16 0.00 83 1009.7
20260508035706 53 302 0.0 4.3 0.00 0.16 0.16 83 1009.7
20260508035205 53 222 0.9 2.6 0.00 0.16 0.16 83 1009.6
20260508034705 52 317 0.9 2.6 0.00 0.16 0.16 82 1009.7
20260508033205 52 280 2.6 6.1 0.00 0.16 0.16 81 1009.6
20260508032706 52 237 1.7 6.1 0.00 0.16 0.16 81 1009.5
20260508032205 52 282 2.6 5.2 0.00 0.16 0.16 81 1009.6
20260508031206 52 255 1.7 6.1 0.00 0.16 0.16 81 1009.8
20260508024205 52 251 0.9 6.1 0.00 0.16 0.16 78 1009.8
20260508023705 52 237 1.7 7.8 0.00 0.16 0.16 78 1009.7
20260508021705 51 239 1.7 6.1 0.00 0.16 0.16 78 1009.6
20260508021205 51 222 1.7 4.3 0.00 0.16 0.16 78 1009.6
20260508020705 51 100 1.7 5.2 0.00 0.16 0.16 78 1009.6
20260508020206 51 274 2.6 6.1 0.00 0.16 0.16 78 1009.6
20260508015705 51 244 1.7 7.8 0.00 0.16 0.16 78 1009.5
20260508014706 51 2 0.9 4.3 0.00 0.16 0.16 78 1009.7
20260508013705 51 197 0.9 1.7 0.00 0.16 0.16 78 1009.5
20260508012705 51 244 3.5 6.1 0.00 0.16 0.16 78 1009.3
20260508012205 51 290 0.9 5.2 0.00 0.16 0.16 78 1009.3
20260508011705 51 289 1.7 4.3 0.00 0.16 0.16 78 1009.2
20260508010705 51 286 2.6 6.1 0.00 0.16 0.16 77 1008.9
20260508010205 51 245 2.6 7.0 0.00 0.16 0.16 77 1008.9
20260508005205 51 232 4.3 7.0 0.00 0.16 0.16 76 1008.9
20260508004705 52 244 5.2 7.0 0.00 0.16 0.16 76 1008.9
20260508004205 52 237 4.3 7.0 0.00 0.16 0.16 75 1008.9
20260508003706 52 230 5.2 7.0 0.00 0.16 0.16 75 1008.8
20260508002705 52 234 5.2 7.8 0.00 0.16 0.16 73 1008.7
20260508002205 53 217 6.1 7.8 0.00 0.16 0.16 73 1008.6
20260508001705 53 219 6.1 8.7 0.00 0.16 0.16 72 1008.6
20260508001205 53 222 6.1 7.8 0.00 0.16 0.16 71 1008.4
20260507235705 54 217 6.1 8.7 0.00 0.16 0.16 70 1008.3
20260507235205 54 226 7.0 10.4 0.00 0.16 0.16 70 1008.3
20260507234705 54 220 7.8 10.4 0.00 0.16 0.16 70 1008.3
20260507234205 55 217 7.8 10.4 0.00 0.16 0.16 69 1008.1
20260507233705 55 220 7.8 10.4 0.00 0.16 0.16 69 1008.0
20260507233205 55 213 8.7 12.2 0.00 0.16 0.16 68 1008.0
20260507232205 55 217 8.7 10.4 0.00 0.16 0.16 69 1007.9
20260507231205 56 224 7.0 10.4 0.00 0.16 0.16 69 1007.9
20260507230705 56 212 9.6 12.2 0.00 0.16 0.16 69 1007.8
20260507230205 56 219 10.4 13.9 0.00 0.16 0.16 68 1007.8
20260507224705 57 198 8.7 13.0 0.00 0.16 0.16 68 1007.8
20260507224205 57 207 10.4 13.0 0.00 0.16 0.16 66 1007.8
20260507223705 57 200 10.4 13.0 0.00 0.16 0.16 67 1007.6
20260507223205 57 199 10.4 14.8 0.00 0.16 0.16 67 1007.7
20260507222205 58 202 9.6 12.2 0.00 0.16 0.16 66 1007.6
20260507221705 58 221 7.8 13.0 0.00 0.16 0.16 63 1007.6
20260507221205 58 193 7.8 10.4 0.00 0.16 0.16 62 1007.6
20260507220705 58 218 6.1 8.7 0.00 0.16 0.16 61 1007.7
20260507220205 59 207 5.2 10.4 0.00 0.16 0.16 60 1007.7
20260507215705 59 192 7.0 10.4 0.00 0.16 0.16 61 1007.8
20260507215205 59 213 7.0 10.4 0.00 0.16 0.16 60 1007.9
20260507214705 60 178 7.0 10.4 0.00 0.16 0.16 57 1007.9
20260507214205 60 206 5.2 8.7 0.00 0.16 0.16 60 1007.9
20260507213705 60 203 5.2 7.0 0.00 0.16 0.16 58 1007.9
20260507213205 60 205 4.3 6.1 0.00 0.16 0.16 58 1007.8
20260507212705 60 217 5.2 7.0 0.00 0.16 0.16 58 1007.7
20260507212205 60 177 5.2 7.0 0.00 0.16 0.16 61 1007.8
20260507211705 60 199 4.3 6.1 0.00 0.16 0.16 60 1007.6
20260507211205 60 201 5.2 8.7 0.00 0.16 0.16 60 1007.6
20260507210205 60 195 6.1 8.7 0.00 0.16 0.16 60 1007.9
20260507205705 60 218 6.1 8.7 0.00 0.16 0.16 62 1008.0
20260507205205 60 201 7.0 10.4 0.00 0.16 0.16 61 1007.9
20260507204705 60 193 5.2 8.7 0.00 0.16 0.16 60 1008.0
20260507204205 60 210 5.2 7.8 0.00 0.16 0.16 60 1007.8
20260507203205 60 194 7.0 8.7 0.00 0.16 0.16 61 1007.8
20260507202705 60 207 7.8 8.7 0.00 0.16 0.16 58 1007.7
20260507202205 60 174 0.0 4.3 0.00 0.16 0.16 57 1007.6
20260507201205 60 210 0.0 1.7 0.00 0.16 0.16 55 1007.7
20260507200705 60 256 1.7 2.6 0.00 0.16 0.16 60 1007.8
20260507200205 60 222 2.6 5.2 0.00 0.16 0.16 58 1008.0
20260507195704 60 233 1.7 2.6 0.00 0.16 0.16 56 1007.9
20260507195205 60 25 0.0 2.6 0.00 0.16 0.16 54 1007.3
20260507194705 60 265 0.0 2.6 0.00 0.16 0.16 55 1007.6
20260507194205 60 246 2.6 5.2 0.00 0.16 0.16 56 1008.0
20260507193705 60 229 2.6 6.1 0.00 0.16 0.16 56 1008.1
20260507192705 60 28 0.0 2.6 0.00 0.16 0.16 59 1008.2
20260507192205 59 80 0.0 0.0 0.00 0.16 0.16 53 1008.2
20260507191705 60 77 0.9 4.3 0.00 0.16 0.16 55 1008.2
20260507191205 60 68 4.3 6.1 0.00 0.16 0.16 54 1007.6
20260507185705 59 80 1.7 2.6 0.00 0.16 0.16 55 1008.5
20260507185205 59 75 0.9 6.1 0.00 0.16 0.16 57 1008.5
20260507184705 59 56 4.3 6.1 0.00 0.16 0.16 55 1008.5
20260507183705 59 294 2.6 5.2 0.00 0.16 0.16 55 1009.0
20260507183205 59 21 0.9 2.6 0.00 0.16 0.16 58 1008.8
20260507182205 59 79 0.9 2.6 0.00 0.16 0.16 63 1008.8
20260507181705 58 217 0.9 2.6 0.00 0.16 0.16 58 1008.9
20260507181205 58 359 0.9 2.6 0.00 0.16 0.16 62 1008.9
20260507180705 58 87 0.9 2.6 0.00 0.16 0.16 64 1008.9
20260507180204 58 55 0.9 2.6 0.00 0.16 0.16 66 1009.2
20260507175705 57 76 0.9 2.6 0.00 0.16 0.16 61 1009.4
20260507175204 57 53 2.6 4.3 0.00 0.16 0.16 66 1009.2
20260507174705 57 5 0.0 2.6 0.00 0.16 0.16 65 1009.6
20260507174205 57 24 0.9 4.3 0.00 0.16 0.16 66 1009.4
20260507173705 57 354 0.9 2.6 0.00 0.16 0.16 68 1009.7
20260507173205 57 351 0.9 2.6 0.00 0.16 0.16 68 1009.7
20260507172705 57 309 1.7 2.6 0.00 0.16 0.16 67 1009.7
20260507172205 57 346 2.6 4.3 0.00 0.16 0.16 61 1009.4
20260507170705 57 335 3.5 6.1 0.00 0.16 0.16 63 1009.5
20260507170205 57 356 1.7 4.3 0.00 0.16 0.16 64 1009.7
20260507165705 57 345 1.7 6.1 0.00 0.16 0.16 61 1009.7
20260507165204 57 335 2.6 5.2 0.00 0.16 0.16 60 1009.8
20260507164705 57 353 0.9 2.6 0.00 0.16 0.16 61 1010.0
20260507164205 57 37 0.9 2.6 0.00 0.16 0.16 61 1010.1
20260507163705 57 344 2.6 7.8 0.00 0.16 0.16 61 1010.2
20260507163204 57 321 1.7 7.0 0.00 0.16 0.16 61 1010.0
20260507162705 57 351 4.3 7.8 0.00 0.16 0.16 60 1010.0
20260507161705 57 1 1.7 4.3 0.00 0.16 0.16 63 1010.4
20260507161205 56 11 2.6 6.1 0.00 0.16 0.16 62 1010.3
20260507160705 56 2 0.9 5.2 0.00 0.17 0.16 62 1010.5
20260507155705 56 356 0.0 2.6 0.00 0.18 0.16 60 1010.6
20260507155205 57 337 1.7 4.3 0.00 0.18 0.16 59 1010.4
20260507154705 57 8 1.7 6.1 0.00 0.18 0.16 60 1010.6
20260507154205 57 8 0.9 6.1 0.00 0.18 0.16 58 1010.5
20260507153205 57 15 2.6 7.8 0.00 0.18 0.16 59 1010.5
20260507152204 57 28 4.3 8.7 0.00 0.18 0.16 60 1010.7
20260507151705 57 28 4.3 8.7 0.00 0.18 0.16 60 1010.7
20260507151205 57 28 4.3 8.7 0.00 0.19 0.16 59 1010.6
20260507150705 57 306 0.9 5.2 0.00 0.19 0.16 58 1010.7
20260507150205 57 344 4.3 8.7 0.00 0.19 0.16 59 1010.7
20260507145705 57 14 1.7 6.1 0.00 0.20 0.16 58 1010.8
20260507145205 57 350 2.6 7.8 0.00 0.20 0.16 58 1010.9
20260507144705 57 24 2.6 10.4 0.00 0.21 0.16 59 1010.9
20260507144205 57 11 3.5 7.0 0.00 0.21 0.16 61 1010.9
20260507143205 57 24 6.1 10.4 0.00 0.21 0.16 59 1011.0
20260507142705 57 341 4.3 8.7 0.00 0.21 0.16 59 1011.0
20260507142205 57 343 3.5 10.4 0.00 0.21 0.16 60 1010.9
20260507141705 57 6 4.3 8.7 0.00 0.21 0.16 61 1011.0
20260507141204 57 6 4.3 10.4 0.00 0.21 0.16 60 1010.9
20260507140705 57 27 0.9 10.4 0.00 0.21 0.16 62 1010.9
20260507140205 57 28 2.6 8.7 0.00 0.21 0.16 60 1010.9
20260507135705 57 12 4.3 8.7 0.00 0.21 0.16 62 1010.9
20260507135205 57 352 2.6 10.4 0.00 0.21 0.16 62 1010.8
20260507134705 57 357 4.3 10.4 0.00 0.21 0.16 61 1010.8
20260507134204 57 357 5.2 10.4 0.00 0.21 0.16 62 1010.9
20260507133705 57 351 2.6 6.1 0.00 0.21 0.16 61 1010.9
20260507133205 58 20 3.5 8.7 0.00 0.21 0.16 62 1011.0
20260507132205 58 336 2.6 7.0 0.00 0.21 0.16 66 1011.0
20260507131205 57 339 3.5 7.0 0.00 0.21 0.16 68 1010.8
20260507130705 57 4 2.6 7.0 0.00 0.21 0.16 67 1010.7
20260507130205 57 12 2.6 8.7 0.00 0.21 0.16 69 1010.9
20260507125705 57 18 2.6 7.0 0.00 0.21 0.16 73 1010.7
20260507124705 57 20 2.6 5.2 0.00 0.21 0.16 81 1010.7
20260507124205 56 0 0.9 4.3 0.00 0.21 0.16 81 1011.1
20260507123704 56 46 0.9 2.6 0.00 0.21 0.16 81 1011.0
20260507123205 56 33 2.6 4.3 0.00 0.21 0.16 82 1010.7
20260507122706 56 36 1.7 4.3 0.00 0.21 0.16 82 1010.8
20260507122205 55 28 1.7 7.0 0.00 0.21 0.16 82 1010.8
20260507121705 55 41 1.7 4.3 0.00 0.21 0.16 83 1010.8
20260507121205 55 66 1.7 2.6 0.00 0.21 0.16 83 1010.9
20260507120705 55 51 0.9 5.2 0.00 0.21 0.16 83 1010.7
20260507120205 55 11 0.9 4.3 0.00 0.21 0.16 83 1010.8
20260507115705 55 47 2.6 4.3 0.00 0.21 0.16 83 1010.7
20260507115205 55 52 1.7 2.6 0.00 0.21 0.16 83 1010.7
20260507114705 55 65 2.6 4.3 0.00 0.21 0.16 83 1010.5
20260507114205 55 60 2.6 5.2 0.00 0.21 0.16 84 1010.6
20260507113205 54 25 0.9 2.6 0.01 0.21 0.16 84 1010.7
20260507112205 54 63 1.7 4.3 0.01 0.21 0.16 84 1010.6
20260507111705 54 45 2.6 5.2 0.01 0.21 0.16 83 1010.6
20260507111204 54 42 0.9 2.6 0.01 0.21 0.16 83 1010.7
20260507110705 54 47 2.6 7.8 0.01 0.21 0.16 83 1010.6
20260507110204 54 59 2.6 5.2 0.01 0.21 0.16 83 1010.5
20260507105705 54 36 2.6 7.8 0.01 0.21 0.16 83 1010.5
20260507105204 54 9 2.6 6.1 0.01 0.21 0.16 83 1010.4
20260507104205 54 39 2.6 6.1 0.01 0.21 0.16 84 1010.1
20260507103705 54 39 3.5 7.0 0.01 0.21 0.16 85 1010.0
20260507103204 54 36 4.3 7.0 0.00 0.20 0.15 85 1010.0